Weather History for Mansfield, OH

Change the Weather History Date:

Tuesday, April 16, 2013

  Actual Average Record
Temperature  
Mean Temperature 59 °F 49 °F  
Max Temperature 70 °F 60 °F 84 °F (2002)
Min Temperature 47 °F 38 °F 16 °F (1935)
Degree Days  
Heating Degree Days 6 16  
Month to date heating degree days 288 304  
Since 1 July heating degree days 5636 5794  
Cooling Degree Days 0 0  
Month to date cooling degree days 0 0  
Year to date cooling degree days 0 1  
Growing Degree Days 9 (Base 50)    
Moisture  
Dew Point 54 °F    
Average Humidity 84    
Maximum Humidity 100    
Minimum Humidity 67    
Precipitation  
Precipitation 0.33 in 0.14 in 1.55 in (1998)
Month to date precipitation 2.92 2.24  
Year to date precipitation 9.60 10.89  
Snow  
Snow 0.00 in 0.10 in - ()
Month to date snowfall 0.0 2.0  
Since 1 July snowfall 39.3 47.7  
Snow Depth 0.00 in    
Sea Level Pressure  
Sea Level Pressure 30.10 in    
Wind  
Wind Speed 10 mph (WSW)    
Max Wind Speed 24 mph    
Max Gust Speed 35 mph    
Visibility 7 miles    
Events Fog , Rain , Thunderstorm    
T = Trace of Precipitation, MM = Missing Value Source: NWS Daily Summary

Daily Weather History Graph

Daily Weather History Graph

Search for Another Location

Airport:

Trip Planner

Search our weather history database for the weather conditions in past years. The results will help you decide how hot, cold, wet, or windy it might be!

Date:

Astronomy

Apr. 16, 2013 Rise Set
Actual Time 6:49 AM EDT 8:10 PM EDT
Civil Twilight 6:20 AM EDT 8:39 PM EDT
Nautical Twilight 5:46 AM EDT 9:13 PM EDT
Astronomical Twilight 5:10 AM EDT 9:50 PM EDT
Moon 11:05 AM EDT (4/16) 1:08 AM EDT (4/16)
Length of Visible Light 14h 18m
Length of Day
13h 21m
Waxing Crescent, 33% of the Moon is Illuminated
Apr 16
Waxing Crescent
Apr 18
First Quarter
Apr 25
Full
May 2
Last Quarter
May 9
New

Hourly Weather History & Observations

Time (EDT) Temp. Dew Point Humidity Pressure Visibility Wind Dir Wind Speed Gust Speed Precip Events Conditions
12:52 AM 59.0 °F 48.9 °F 69% 29.98 in 10.0 mi SSE 15.0 mph - N/A   Scattered Clouds
1:52 AM 57.9 °F 48.9 °F 72% 29.98 in 10.0 mi SSE 15.0 mph 25.3 mph N/A   Scattered Clouds
2:52 AM 57.9 °F 48.9 °F 72% 29.96 in 10.0 mi South 15.0 mph - N/A   Clear
3:52 AM 57.0 °F 50.0 °F 77% 29.96 in 10.0 mi South 15.0 mph - N/A   Clear
4:52 AM 57.0 °F 50.0 °F 77% 29.98 in 10.0 mi South 16.1 mph - N/A   Mostly Cloudy
5:52 AM 57.0 °F 50.0 °F 77% 29.98 in 10.0 mi South 12.7 mph - N/A   Scattered Clouds
6:52 AM 59.0 °F 51.1 °F 75% 30.01 in 10.0 mi South 18.4 mph 25.3 mph N/A   Overcast
7:52 AM 61.0 °F 53.1 °F 75% 30.03 in 10.0 mi SSW 24.2 mph 28.8 mph N/A   Overcast
8:52 AM 63.0 °F 54.0 °F 72% 30.05 in 10.0 mi SSW 16.1 mph 21.9 mph N/A   Mostly Cloudy
8:59 AM 62.6 °F 53.6 °F 72% 30.07 in 10.0 mi SSW 13.8 mph 20.7 mph N/A   Mostly Cloudy
9:16 AM 62.6 °F 55.4 °F 77% 30.06 in 10.0 mi SSW 15.0 mph 20.7 mph N/A Thunderstorm Thunderstorm
9:50 AM 62.6 °F 57.2 °F 82% 30.06 in 10.0 mi South 12.7 mph - 0.05 in   Overcast
9:52 AM 62.1 °F 57.0 °F 84% 30.05 in 10.0 mi SSW 13.8 mph - 0.05 in   Overcast
10:52 AM 64.0 °F 57.0 °F 78% 30.08 in 10.0 mi SSW 16.1 mph - N/A   Overcast
11:17 AM 64.4 °F 57.2 °F 77% 30.10 in 10.0 mi SSW 18.4 mph 26.5 mph N/A   Mostly Cloudy
11:52 AM 66.0 °F 59.0 °F 78% 30.06 in 10.0 mi SSW 15.0 mph 23.0 mph N/A   Mostly Cloudy
12:52 PM 66.9 °F 59.0 °F 76% 30.05 in 10.0 mi SSW 15.0 mph 24.2 mph N/A   Scattered Clouds
1:02 PM 68.0 °F 59.0 °F 73% 30.07 in 10.0 mi SW 17.3 mph 23.0 mph N/A   Mostly Cloudy
1:20 PM 68.0 °F 59.0 °F 73% 30.07 in 10.0 mi SW 12.7 mph 21.9 mph N/A   Mostly Cloudy
1:52 PM 70.0 °F 59.0 °F 68% 30.07 in 10.0 mi WSW 13.8 mph 18.4 mph N/A   Mostly Cloudy
2:08 PM 68.0 °F 60.8 °F 78% 30.09 in 10.0 mi West 8.1 mph 17.3 mph N/A   Overcast
2:18 PM 66.2 °F 59.0 °F 78% 30.09 in 10.0 mi WNW 10.4 mph - N/A   Mostly Cloudy
2:52 PM 66.9 °F 59.0 °F 76% 30.09 in 10.0 mi West 8.1 mph - N/A   Mostly Cloudy
3:52 PM 70.0 °F 60.1 °F 71% 30.08 in 10.0 mi WNW 9.2 mph - N/A   Scattered Clouds
4:15 PM 64.4 °F 59.0 °F 83% 30.11 in 9.0 mi WNW 12.7 mph - N/A   Overcast
4:44 PM 62.6 °F 57.2 °F 82% 30.13 in 8.0 mi NW 12.7 mph - N/A   Overcast
4:52 PM 60.1 °F 55.9 °F 86% 30.13 in 7.0 mi NW 15.0 mph 21.9 mph N/A   Overcast
5:36 PM 57.2 °F 55.4 °F 94% 30.13 in 6.0 mi NW 11.5 mph - 0.01 in Rain Light Rain
5:52 PM 55.9 °F 54.0 °F 93% 30.14 in 4.0 mi WNW 9.2 mph - 0.03 in Rain Rain
6:29 PM 55.4 °F 55.4 °F 100% 30.15 in 6.0 mi NW 9.2 mph - 0.04 in Rain Light Rain
6:42 PM 55.4 °F 55.4 °F 100% 30.17 in 4.0 mi West 3.5 mph - 0.06 in Rain Light Rain
6:52 PM 55.0 °F 55.0 °F 100% 30.17 in 2.5 mi Calm Calm - 0.08 in Rain Rain
7:05 PM 55.4 °F 53.6 °F 94% 30.16 in 2.0 mi North 4.6 mph - 0.06 in Rain Rain
7:13 PM 55.4 °F 53.6 °F 94% 30.16 in 2.0 mi NNW 5.8 mph - 0.08 in Rain Rain
7:52 PM 54.0 °F 53.1 °F 97% 30.17 in 2.0 mi NNW 3.5 mph - 0.16 in Rain Light Rain
8:02 PM 53.6 °F 53.6 °F 100% 30.15 in 3.0 mi NE 6.9 mph - 0.01 in Rain Light Rain
8:52 PM 53.1 °F 53.1 °F 100% 30.19 in 5.0 mi North 4.6 mph - 0.01 in   Overcast
9:43 PM 51.8 °F 51.8 °F 100% 30.16 in 5.0 mi East 4.6 mph - N/A   Scattered Clouds
9:52 PM 52.0 °F 52.0 °F 100% 30.17 in 5.0 mi Calm Calm - N/A   Partly Cloudy
10:34 PM 51.8 °F 51.8 °F 100% 30.17 in 2.5 mi NNE 3.5 mph - N/A   Mostly Cloudy
10:52 PM 51.1 °F 51.1 °F 100% 30.18 in 0.5 mi Calm Calm - N/A Fog Fog
11:08 PM 51.8 °F 51.8 °F 100% 30.19 in 0.2 mi Calm Calm - N/A Fog Fog
11:42 PM 48.2 °F 48.2 °F 100% 30.21 in 0.5 mi Calm Calm - N/A Fog Fog
11:50 PM 48.2 °F 48.2 °F 100% 30.21 in 1.2 mi Calm Calm - N/A   Mostly Cloudy
11:52 PM 48.9 °F 48.9 °F 100% 30.21 in 1.2 mi NW 3.5 mph - N/A   Mostly Cloudy